星链-37328(STARLINK-37328)

导读

STARLINK-37328(NORAD编号69160)是SpaceX星链(Starlink)互联网卫星星座的一员,作为低轨通信卫星,旨在为全球提供高速宽带互联网服务。星链星座通过大规模部署低轨卫星,减少信号延迟,提升覆盖范围,尤其服务偏远地区与网络基础设施匮乏区域。该卫星遵循NORAD统一空间物体编号规则,纳入全球空间监测体系,参与轨道运行监测与碰撞规避管理。作为SpaceX批量生产发射的星链卫星之一,它延续了星链星座标准化设计,支持相位阵列天线与自动轨道机动,保障星座组网运行效率和空间安全,目前在近地轨道执行通信组网任务。

基本信息
目录编号:
69160
目录名称:
STARLINK-37328
国际标识:
2026-111N
轨道中心:
EARTH
卫星名称:
星链-37328
卫星全名:
星链-37328(STARLINK-37328)
卫星状态:
在轨 (已飞行115 天)
发射日期:
2026-05-21 UTC
国别 :
美国 (US)
星等 :
--
该卫星已列入 空间交会检测服务 Space Conjunction Data Service (SCDS) ,当前飞行风险评估等级: 无高风险
轨道信息
数据来源 国际轨道数据
星历时间: 2026-09-13T07:34:36+0800
11小时前
查看轨道信息
半长轴: 6840.834km
偏心率: 0.0000831
轨道倾角: 53.158°
近地点辐角 71.282°
升交点赤经 100.928°
平近点角 288.827°
近地点: 462.128km
远地点: 463.266km
周期: 93.848分钟
每日圈数: 15.344022
详细信息
固有亮度:
5
最大亮度:
2.5
卫星平台:
Starlink V1.0
覆盖范围:
全球
运营商:
太空探索技术公司
运营商所在国:
美国
制造商(研发单位):
太空探索技术公司
制造商所在国:
美国
使用方式:
暂无
卫星简介
Starlink 计划是 SpaceX 推出的全球卫星互联网项目,通过发射低轨道卫星,为全球尤其是偏远地区提供高速、低延迟的互联网服务。自 2019 年起,Starlink 已部署数千颗卫星,旨在缩小全球数字鸿沟,推动互联网普及。该项目还为军事、航空等行业提供通信支持,带来广泛经济效益。
2D轨道图
3D轨道图
轨道高度分析图
轨道倾角分析图
轨道综合分析图
查看轨道综合分析图
交会数据列表
事件ID 空间交会对象 最接近时刻(TCA) 交会距离 交会风险概率(CRP) 交会风险指数(CRI) 操作
CDM_260914-182906-029306-916021
2026-09-14T
18:29:32+0000
0.979 km
远距离
2.529886E-5 中风险 0.63
CDM_260915-122806-029306-916021
2026-09-15T
12:28:10+0000
2.026 km
极远距离
2.431426E-6 低风险 0.43
CDM_260915-063504-380306-916021
JY1SAT (43803)
2026-09-15T
06:35:46+0000
2.418 km
极远距离
1.770987E-6 低风险 0.4
CDM_260915-105406-029306-916021
2026-09-15T
10:54:22+0000
2.458 km
极远距离
1.601021E-6 低风险 0.39
CDM_260914-200306-029306-916021
2026-09-14T
20:03:20+0000
2.678 km
极远距离
1.387503E-6 低风险 0.38
与全量物体交会距离演化趋势
与全量物体交会风险概率演化趋势